User: anonymous   Login
Location: Mentone
(34.5413°N, 85.5351°W)
Time: 04:15:10
(UTC-06:00)
Language:

AO-Echo - Orbit

View from above orbital plane
View from above orbital plane
View from above satellite
View from above satellite

Ground track
Ground track

The orbit data is extracted from the following two-line orbital elements,

1 28375U 04025K   18020.78008213 +.00000025 +00000-0 +20763-4 0  9995
2 28375 098.3766 314.8817 0082358 348.2747 011.6522 14.41872817713112
Epoch (UTC): 20 January 2018 18:43:19
Eccentricity: 0.0082358
inclination: 98.3766°
perigee height: 693 km
apogee height: 811 km
right ascension of ascending node: 314.8817°
argument of perigee: 348.2747°
revolutions per day: 14.41872817
mean anomaly at epoch: 11.6522°
orbit number at epoch: 71311

The dashed part of the orbit path shows where the satellite is in the earth's shadow,  

DLR